Weather in Spassk

Russia / Kemerovo Oblast     52˚44′52″N   87˚45′13″E
temp.,
°C
wind,
m/s
gust,
m/s
humid.,
%
clouds,
%
prec.,
mm/h
press.,
hPa
HPBL,
m
18 january, mon
mon1801:00−9˚sw1290100 1.0 102264
04:00−13˚s118681 0.1 102121
07:00−13˚ese128355 0.1 101920
10:00−12˚se228488 0.0 101733
13:00−5˚sse227994 0.0 1013130
16:00−2˚w1980100 0.0 1011582
19:00−6˚w31583100 0.1 1013860
22:00−8˚w31096100 1.5 1015823
19 january, tue
tue1901:00−9˚w3995100 3.3 1018936
04:00−11˚wnw2797100 1.0 1020584
07:00−15˚w1198100 1.2 102220
10:00−17˚wsw119895 0.0 102320
13:00−11˚w137957 0.0 1022468
16:00−11˚w128547 0.0 1021325
19:00−16˚sw009168 0.0 102320
22:00−16˚ssw0193100 0.0 102220
20 january, wed
wed2001:00−16˚w0093100 0.0 102220
04:00−17˚wsw0093100 0.0 102220
07:00−16˚wnw1192100 0.0 102420
10:00−16˚nne0089100 0.0 102520
13:00−11˚e1176100 0.0 1024183
16:00−10˚e1182100 0.0 1023179
19:00−12˚e1188100 0.0 102421
22:00−11˚e1196100 0.3 102347
21 january, thu
thu2101:00−11˚e1196100 0.5 102224
04:00−9˚ese1196100 0.8 102150
07:00−7˚se1297100 2.8 101967
10:00−5˚s1397100 2.1 101899
13:00−2˚w41295100 3.5 1017811
16:00−3˚w3895100 1.0 1016714
19:00−6˚wnw1198100 1.4 101721
22:00−8˚e1196100 0.0 101421
22 january, fri
fri2201:00−7˚ese2296100 0.0 101054
04:00−7˚e2295100 0.1 100545
07:00−6˚sw2397100 0.8 100387
10:00−5˚wsw41096100 3.2 1005852
13:00−8˚w4894100 5.4 1008722
16:00−11˚w4893100 1.1 1012845
19:00−15˚wsw3996100 1.4 1018596
22:00−19˚wsw2697100 0.1 1022433